This is the latest recevied weather packets stored in our database for station/object IW3HBX-13. If no packets are shown the sender has not sent any weather packets the latest 1 day(s).
| Time | Temp. | Humidity | Pressure | Rain* | Wind** | Luminosity | Snow |
|---|---|---|---|---|---|---|---|
| 1777945330 | 15° C | 87% | 1014.8 hPa | 0 mm | 0.89 m/s, 71° | 0 W/m² | - |
| 1777944969 | 15° C | 87% | 1014.7 hPa | 0 mm | 0.89 m/s, 76° | 0 W/m² | - |
| 1777944250 | 15° C | 86% | 1014.7 hPa | 0 mm | 0.89 m/s, 70° | 0 W/m² | - |
| 1777943890 | 15° C | 85% | 1014.8 hPa | 0 mm | 1.34 m/s, 74° | 0 W/m² | - |
| 1777943527 | 15° C | 85% | 1014.9 hPa | 0 mm | 1.34 m/s, 69° | 0 W/m² | - |
| 1777943167 | 15° C | 86% | 1014.9 hPa | 0 mm | 0.89 m/s, 67° | 0 W/m² | - |
| 1777942447 | 15° C | 86% | 1015.3 hPa | 0 mm | 1.34 m/s, 65° | 0 W/m² | - |
| 1777942087 | 15° C | 85% | 1015.4 hPa | 0 mm | 0.89 m/s, 70° | 0 W/m² | - |
| 1777941728 | 15° C | 85% | 1015.5 hPa | 0 mm | 0.89 m/s, 68° | 0 W/m² | - |
| 1777941370 | 15° C | 84% | 1015.6 hPa | 0 mm | 0.89 m/s, 68° | 0 W/m² | - |
| 1777940648 | 15° C | 84% | 1015.5 hPa | 0 mm | 0.89 m/s, 68° | 0 W/m² | - |
| 1777940288 | 15° C | 84% | 1015.6 hPa | 0 mm | 0.89 m/s, 58° | 0 W/m² | - |
| 1777939929 | 15° C | 84% | 1015.6 hPa | 0 mm | 1.34 m/s, 54° | 0 W/m² | - |
| 1777939567 | 15° C | 83% | 1015.7 hPa | 0 mm | 1.34 m/s, 69° | 0 W/m² | - |
| 1777938850 | 15.56° C | 82% | 1015.8 hPa | 0 mm | 1.34 m/s, 65° | 0 W/m² | - |
| 1777938755 | 15.56° C | 81% | 1015.8 hPa | 0 mm | 1.34 m/s, 68° | 0 W/m² | - |
| 1777938535 | 15.56° C | 81% | 1015.8 hPa | 0 mm | 1.34 m/s, 72° | 0 W/m² | - |
| 1777938487 | 15.56° C | 81% | 1015.8 hPa | 0 mm | 1.34 m/s, 72° | 0 W/m² | - |
| 1777938129 | 15.56° C | 81% | 1015.8 hPa | 0 mm | 1.34 m/s, 68° | 0 W/m² | - |
| 1777937767 | 15.56° C | 80% | 1015.9 hPa | 0 mm | 1.34 m/s, 79° | 0 W/m² | - |
| 1777937407 | 15.56° C | 79% | 1016 hPa | 0 mm | 1.34 m/s, 73° | 0 W/m² | - |
| 1777937093 | 16.11° C | 76% | 1016.1 hPa | 0 mm | 1.34 m/s, 70° | 0 W/m² | - |
| 1777937049 | 15.56° C | 78% | 1016 hPa | 0 mm | 1.34 m/s, 67° | 0 W/m² | - |
| 1777936690 | 16.11° C | 76% | 1016.1 hPa | 0 mm | 1.34 m/s, 70° | 0 W/m² | - |
| 1777936327 | 16.11° C | 76% | 1016.2 hPa | 0 mm | 1.34 m/s, 74° | 0 W/m² | - |
* Rain latest hour (hover to see other rain measurements)
** Current wind speed in m/s (hover to see current wind gust speed)